| time (UTC) | temp C | wind direction | speed KPH | gust KPH | rain 1hr cm | rain 24hr cm | rain mn cm | humidity % | barometer mb |
| 20260504120150 | 9 | 142 | 27.4 | 35.4 | 0.00 | 0.03 | 0.03 | 73 | 1008.7 |
| 20260504110618 | 8 | 141 | 17.7 | 20.9 | 0.00 | 0.03 | 0.03 | 81 | 1009.2 |
| 20260504110114 | 8 | 148 | 20.9 | 24.1 | 0.00 | 0.03 | 0.03 | 82 | 1009.2 |
| 20260504100539 | 8 | 153 | 24.1 | 27.4 | 0.00 | 0.03 | 0.03 | 80 | 1009.4 |
| 20260504081933 | 7 | 155 | 19.3 | 29.0 | 0.00 | 0.00 | 0.00 | 85 | 1009.5 |
| 20260504081430 | 7 | 163 | 16.1 | 27.4 | 0.00 | 0.00 | 0.00 | 85 | 1009.6 |
| 20260504080926 | 8 | 171 | 19.3 | 27.4 | 0.00 | 0.00 | 0.00 | 81 | 1009.8 |
| 20260504080423 | 8 | 162 | 20.9 | 29.0 | 0.00 | 0.00 | 0.00 | 79 | 1009.7 |
| 20260504070351 | 8 | 159 | 14.5 | 24.1 | 0.00 | 0.00 | 0.00 | 75 | 1009.8 |
| 20260504050738 | 8 | 178 | 12.9 | 22.5 | 0.00 | 0.00 | 0.00 | 62 | 1010.2 |
| 20260504050235 | 8 | 185 | 14.5 | 17.7 | 0.00 | 0.00 | 0.00 | 62 | 1010.1 |
| 20260504045732 | 8 | 174 | 12.9 | 17.7 | 0.00 | 0.00 | 0.00 | 62 | 1010.1 |
| 20260504045227 | 8 | 196 | 11.3 | 19.3 | 0.00 | 0.00 | 0.00 | 62 | 1010.0 |
| 20260504044725 | 8 | 199 | 19.3 | 29.0 | 0.00 | 0.00 | 0.00 | 61 | 1010.2 |
| 20260504044222 | 8 | 178 | 8.0 | 16.1 | 0.00 | 0.00 | 0.00 | 61 | 1010.2 |
| 20260504043720 | 8 | 181 | 14.5 | 20.9 | 0.00 | 0.00 | 0.00 | 59 | 1010.0 |
| 20260504043216 | 8 | 180 | 14.5 | 20.9 | 0.00 | 0.00 | 0.00 | 59 | 1010.2 |
| 20260504042714 | 8 | 155 | 19.3 | 19.3 | 0.00 | 0.00 | 0.00 | 60 | 1010.2 |
| 20260504042210 | 8 | 175 | 12.9 | 17.7 | 0.00 | 0.00 | 0.00 | 58 | 1010.4 |
| 20260504041706 | 8 | 179 | 11.3 | 14.5 | 0.00 | 0.00 | 0.00 | 58 | 1010.3 |
| 20260504041202 | 8 | 193 | 12.9 | 20.9 | 0.00 | 0.00 | 0.00 | 57 | 1010.3 |
| 20260504040659 | 8 | 218 | 17.7 | 24.1 | 0.00 | 0.00 | 0.00 | 56 | 1010.2 |
| 20260504040156 | 8 | 214 | 16.1 | 20.9 | 0.00 | 0.00 | 0.00 | 57 | 1010.3 |
| 20260504035652 | 7 | 171 | 11.3 | 16.1 | 0.00 | 0.00 | 0.00 | 57 | 1010.2 |
| 20260504035150 | 8 | 163 | 14.5 | 20.9 | 0.00 | 0.00 | 0.00 | 54 | 1010.4 |
| 20260504034647 | 8 | 143 | 9.7 | 17.7 | 0.00 | 0.00 | 0.00 | 57 | 1010.4 |
| 20260504034144 | 8 | 153 | 14.5 | 19.3 | 0.00 | 0.00 | 0.00 | 56 | 1010.4 |
| 20260504033642 | 8 | 156 | 14.5 | 17.7 | 0.00 | 0.00 | 0.00 | 56 | 1010.5 |
| 20260504033139 | 8 | 150 | 16.1 | 24.1 | 0.00 | 0.00 | 0.00 | 53 | 1010.4 |
| 20260504032635 | 8 | 150 | 12.9 | 22.5 | 0.00 | 0.00 | 0.00 | 54 | 1010.1 |
| 20260504032133 | 7 | 163 | 11.3 | 17.7 | 0.00 | 0.00 | 0.00 | 56 | 1010.5 |
| 20260504031630 | 7 | 164 | 12.9 | 12.9 | 0.00 | 0.00 | 0.00 | 56 | 1010.4 |
| 20260504031126 | 7 | 170 | 9.7 | 14.5 | 0.00 | 0.00 | 0.00 | 56 | 1010.4 |
| 20260504030623 | 7 | 169 | 11.3 | 16.1 | 0.00 | 0.00 | 0.00 | 57 | 1010.3 |
| 20260504030119 | 6 | 154 | 9.7 | 14.5 | 0.00 | 0.00 | 0.00 | 58 | 1010.5 |
| 20260504025616 | 6 | 161 | 9.7 | 14.5 | 0.00 | 0.00 | 0.00 | 60 | 1010.3 |
| 20260504025113 | 6 | 150 | 9.7 | 12.9 | 0.00 | 0.00 | 0.00 | 58 | 1010.3 |
| 20260504024610 | 5 | 134 | 6.4 | 11.3 | 0.00 | 0.00 | 0.00 | 63 | 1010.3 |
| 20260504024107 | 5 | 142 | 9.7 | 11.3 | 0.00 | 0.00 | 0.00 | 64 | 1010.4 |
| 20260504023603 | 5 | 153 | 8.0 | 9.7 | 0.00 | 0.00 | 0.00 | 66 | 1010.5 |
| 20260504023059 | 5 | 147 | 8.0 | 11.3 | 0.00 | 0.00 | 0.00 | 66 | 1010.6 |
| 20260504022556 | 4 | 143 | 8.0 | 9.7 | 0.00 | 0.00 | 0.00 | 68 | 1010.5 |
| 20260504022052 | 4 | 137 | 6.4 | 8.0 | 0.00 | 0.00 | 0.00 | 68 | 1010.6 |
| 20260504021550 | 4 | 147 | 6.4 | 8.0 | 0.00 | 0.00 | 0.00 | 67 | 1010.7 |
| 20260504021046 | 5 | 140 | 9.7 | 11.3 | 0.00 | 0.00 | 0.00 | 61 | 1010.5 |
| 20260504020543 | 5 | 127 | 6.4 | 8.0 | 0.00 | 0.00 | 0.00 | 64 | 1010.6 |
| 20260504020040 | 5 | 149 | 8.0 | 9.7 | 0.00 | 0.00 | 0.00 | 61 | 1010.8 |
| 20260504015536 | 5 | 138 | 9.7 | 11.3 | 0.00 | 0.00 | 0.00 | 61 | 1010.9 |
| 20260504015032 | 5 | 139 | 11.3 | 11.3 | 0.00 | 0.00 | 0.00 | 64 | 1010.6 |
| 20260504014529 | 5 | 142 | 8.0 | 11.3 | 0.00 | 0.00 | 0.00 | 60 | 1010.9 |
| 20260504014026 | 5 | 136 | 11.3 | 11.3 | 0.00 | 0.00 | 0.00 | 63 | 1010.8 |
| 20260504013524 | 5 | 152 | 8.0 | 9.7 | 0.00 | 0.00 | 0.00 | 62 | 1010.8 |
| 20260504013020 | 6 | 129 | 8.0 | 8.0 | 0.00 | 0.00 | 0.00 | 59 | 1010.8 |
| 20260504012518 | 6 | 132 | 8.0 | 8.0 | 0.00 | 0.00 | 0.00 | 58 | 1010.8 |
| 20260504012016 | 6 | 174 | 4.8 | 4.8 | 0.00 | 0.00 | 0.00 | 59 | 1010.7 |
| 20260504011512 | 6 | 174 | 3.2 | 4.8 | 0.00 | 0.00 | 0.00 | 59 | 1010.6 |
| 20260504011008 | 6 | 151 | 3.2 | 8.0 | 0.00 | 0.00 | 0.00 | 58 | 1010.5 |
| 20260504010504 | 7 | 143 | 4.8 | 4.8 | 0.00 | 0.00 | 0.00 | 55 | 1010.9 |
| 20260504010000 | 6 | 139 | 4.8 | 8.0 | 0.00 | 0.00 | 0.00 | 53 | 1010.6 |
| 20260504005456 | 6 | 128 | 8.0 | 8.0 | 0.00 | 0.00 | 0.00 | 57 | 1010.5 |
| 20260504004954 | 6 | 128 | 9.7 | 11.3 | 0.00 | 0.00 | 0.00 | 58 | 1010.4 |
| 20260504004452 | 6 | 133 | 8.0 | 9.7 | 0.00 | 0.00 | 0.00 | 60 | 1010.4 |
| 20260504003949 | 6 | 132 | 4.8 | 4.8 | 0.00 | 0.00 | 0.00 | 59 | 1010.4 |
| 20260504003444 | 6 | 138 | 1.6 | 3.2 | 0.00 | 0.00 | 0.00 | 60 | 1010.5 |
| 20260504002942 | 6 | 138 | 0.0 | 3.2 | 0.00 | 0.00 | 0.00 | 60 | 1010.4 |
| 20260504002439 | 6 | 143 | 4.8 | 6.4 | 0.00 | 0.00 | 0.00 | 60 | 1010.1 |
| 20260504001936 | 7 | 187 | 3.2 | 4.8 | 0.00 | 0.00 | 0.00 | 54 | 1010.2 |
| 20260504001433 | 8 | 178 | 1.6 | 3.2 | 0.00 | 0.00 | 0.00 | 52 | 1010.1 |
| 20260504000930 | 8 | 194 | 0.0 | 3.2 | 0.00 | 0.00 | 0.00 | 49 | 1010.2 |
| 20260504000427 | 8 | 233 | 3.2 | 3.2 | 0.00 | 0.00 | 0.00 | 48 | 1010.1 |
| 20260503235924 | 9 | 230 | 0.0 | 4.8 | 0.00 | 0.00 | 0.00 | 48 | 1010.2 |
| 20260503235422 | 9 | 254 | 1.6 | 4.8 | 0.00 | 0.00 | 0.00 | 47 | 1010.1 |
| 20260503234919 | 10 | 237 | 4.8 | 8.0 | 0.00 | 0.00 | 0.00 | 45 | 1010.1 |
| 20260503234417 | 10 | 254 | 1.6 | 6.4 | 0.00 | 0.00 | 0.00 | 45 | 1010.2 |
| 20260503233914 | 10 | 257 | 3.2 | 6.4 | 0.00 | 0.00 | 0.00 | 46 | 1010.1 |
| 20260503233411 | 10 | 260 | 4.8 | 4.8 | 0.00 | 0.00 | 0.00 | 44 | 1010.0 |
| 20260503232907 | 10 | 261 | 1.6 | 4.8 | 0.00 | 0.00 | 0.00 | 45 | 1010.1 |
| 20260503232404 | 11 | 270 | 4.8 | 12.9 | 0.00 | 0.00 | 0.00 | 43 | 1010.1 |
| 20260503231902 | 11 | 257 | 0.0 | 6.4 | 0.00 | 0.00 | 0.00 | 44 | 1009.9 |
| 20260503231359 | 11 | 260 | 6.4 | 14.5 | 0.00 | 0.00 | 0.00 | 42 | 1009.9 |
| 20260503230855 | 12 | 262 | 6.4 | 9.7 | 0.00 | 0.00 | 0.00 | 43 | 1009.7 |
| 20260503230352 | 12 | 251 | 4.8 | 11.3 | 0.00 | 0.00 | 0.00 | 43 | 1009.8 |
| 20260503225850 | 11 | 261 | 8.0 | 9.7 | 0.00 | 0.00 | 0.00 | 44 | 1009.9 |
| 20260503225345 | 11 | 255 | 6.4 | 9.7 | 0.00 | 0.00 | 0.00 | 44 | 1009.9 |
| 20260503224842 | 11 | 268 | 8.0 | 12.9 | 0.00 | 0.00 | 0.00 | 43 | 1010.0 |
| 20260503224339 | 11 | 243 | 4.8 | 17.7 | 0.00 | 0.00 | 0.00 | 42 | 1009.9 |
| 20260503223837 | 12 | 256 | 12.9 | 16.1 | 0.00 | 0.00 | 0.00 | 41 | 1009.9 |
| 20260503223334 | 12 | 278 | 8.0 | 16.1 | 0.00 | 0.00 | 0.00 | 39 | 1009.8 |
| 20260503222830 | 12 | 268 | 6.4 | 14.5 | 0.00 | 0.00 | 0.00 | 40 | 1009.9 |
| 20260503222329 | 12 | 282 | 9.7 | 14.5 | 0.00 | 0.00 | 0.00 | 41 | 1009.9 |
| 20260503221826 | 12 | 251 | 6.4 | 9.7 | 0.00 | 0.00 | 0.00 | 43 | 1009.8 |
| 20260503221325 | 11 | 225 | 6.4 | 8.0 | 0.00 | 0.00 | 0.00 | 44 | 1009.8 |
| 20260503220821 | 11 | 255 | 11.3 | 14.5 | 0.00 | 0.00 | 0.00 | 42 | 1010.0 |
| 20260503220318 | 11 | 281 | 11.3 | 12.9 | 0.00 | 0.00 | 0.00 | 42 | 1009.9 |
| 20260503215814 | 11 | 256 | 6.4 | 22.5 | 0.00 | 0.00 | 0.00 | 43 | 1009.7 |
| 20260503215312 | 11 | 274 | 9.7 | 19.3 | 0.00 | 0.00 | 0.00 | 44 | 1009.8 |
| 20260503214810 | 12 | 286 | 6.4 | 11.3 | 0.00 | 0.00 | 0.00 | 42 | 1009.7 |
| 20260503214306 | 12 | 289 | 4.8 | 6.4 | 0.00 | 0.00 | 0.00 | 45 | 1009.6 |
| 20260503213804 | 12 | 276 | 4.8 | 9.7 | 0.00 | 0.00 | 0.00 | 42 | 1009.8 |
| 20260503213301 | 12 | 280 | 6.4 | 14.5 | 0.00 | 0.00 | 0.00 | 44 | 1009.8 |
| 20260503212758 | 13 | 326 | 3.2 | 12.9 | 0.00 | 0.00 | 0.00 | 43 | 1009.6 |
| 20260503212256 | 13 | 291 | 11.3 | 12.9 | 0.00 | 0.00 | 0.00 | 39 | 1009.7 |
| 20260503211753 | 12 | 248 | 3.2 | 9.7 | 0.00 | 0.00 | 0.00 | 42 | 1009.7 |
| 20260503211249 | 11 | 35 | 8.0 | 20.9 | 0.00 | 0.00 | 0.00 | 46 | 1009.6 |
| 20260503210744 | 11 | 79 | 6.4 | 6.4 | 0.00 | 0.00 | 0.00 | 47 | 1009.5 |
| 20260503210242 | 11 | 39 | 8.0 | 8.0 | 0.00 | 0.00 | 0.00 | 48 | 1009.5 |
| 20260503205742 | 11 | 77 | 4.8 | 6.4 | 0.00 | 0.00 | 0.00 | 47 | 1009.7 |
| 20260503205239 | 11 | 36 | 11.3 | 11.3 | 0.00 | 0.00 | 0.00 | 47 | 1009.6 |
| 20260503204735 | 12 | 49 | 11.3 | 17.7 | 0.00 | 0.00 | 0.00 | 45 | 1009.6 |
| 20260503204233 | 12 | 24 | 4.8 | 9.7 | 0.00 | 0.00 | 0.00 | 45 | 1009.8 |
| 20260503203731 | 12 | 285 | 8.0 | 9.7 | 0.00 | 0.00 | 0.00 | 42 | 1009.7 |
| 20260503203228 | 12 | 287 | 4.8 | 6.4 | 0.00 | 0.00 | 0.00 | 44 | 1009.6 |
| 20260503202725 | 11 | 280 | 3.2 | 4.8 | 0.00 | 0.00 | 0.00 | 45 | 1009.5 |
| 20260503202223 | 11 | 255 | 6.4 | 9.7 | 0.00 | 0.00 | 0.00 | 47 | 1009.7 |
| 20260503201721 | 11 | 349 | 4.8 | 8.0 | 0.00 | 0.00 | 0.00 | 45 | 1009.9 |
| 20260503201218 | 11 | 40 | 3.2 | 6.4 | 0.00 | 0.00 | 0.00 | 45 | 1009.8 |
| 20260503200714 | 11 | 226 | 1.6 | 4.8 | 0.00 | 0.00 | 0.00 | 43 | 1009.7 |
| 20260503200211 | 10 | 312 | 3.2 | 11.3 | 0.00 | 0.00 | 0.00 | 46 | 1009.8 |
| 20260503195707 | 10 | 10 | 1.6 | 14.5 | 0.00 | 0.00 | 0.00 | 48 | 1010.1 |
| 20260503195204 | 10 | 6 | 3.2 | 8.0 | 0.00 | 0.00 | 0.00 | 47 | 1010.1 |
| 20260503194701 | 10 | 36 | 4.8 | 14.5 | 0.00 | 0.00 | 0.00 | 52 | 1010.1 |
| 20260503194156 | 10 | 247 | 4.8 | 8.0 | 0.00 | 0.00 | 0.00 | 48 | 1010.1 |
| 20260503193654 | 10 | 356 | 4.8 | 16.1 | 0.00 | 0.00 | 0.00 | 45 | 1010.2 |
| 20260503193149 | 10 | 284 | 6.4 | 11.3 | 0.00 | 0.00 | 0.00 | 50 | 1010.4 |
| 20260503192645 | 10 | 318 | 11.3 | 14.5 | 0.00 | 0.00 | 0.00 | 46 | 1010.4 |
| 20260503192141 | 10 | 331 | 4.8 | 9.7 | 0.00 | 0.00 | 0.00 | 49 | 1010.5 |
| 20260503191638 | 10 | 304 | 8.0 | 12.9 | 0.00 | 0.00 | 0.00 | 49 | 1010.5 |
| 20260503191135 | 10 | 13 | 3.2 | 11.3 | 0.00 | 0.00 | 0.00 | 50 | 1010.7 |
| 20260503190632 | 10 | 271 | 6.4 | 8.0 | 0.00 | 0.00 | 0.00 | 49 | 1010.6 |
| 20260503190129 | 10 | 327 | 9.7 | 14.5 | 0.00 | 0.00 | 0.00 | 48 | 1010.8 |
| 20260503185625 | 10 | 284 | 8.0 | 9.7 | 0.00 | 0.00 | 0.00 | 50 | 1010.8 |
| 20260503185120 | 10 | 323 | 9.7 | 9.7 | 0.00 | 0.00 | 0.00 | 48 | 1010.9 |
| 20260503184616 | 10 | 329 | 12.9 | 17.7 | 0.00 | 0.00 | 0.00 | 49 | 1010.9 |
| 20260503184112 | 10 | 345 | 6.4 | 9.7 | 0.00 | 0.00 | 0.00 | 51 | 1010.7 |
| 20260503183609 | 10 | 348 | 4.8 | 8.0 | 0.00 | 0.00 | 0.00 | 50 | 1010.8 |
| 20260503183106 | 10 | 341 | 4.8 | 14.5 | 0.00 | 0.00 | 0.00 | 49 | 1010.6 |
| 20260503182605 | 10 | 341 | 8.0 | 14.5 | 0.00 | 0.00 | 0.00 | 49 | 1011.0 |
| 20260503182102 | 10 | 346 | 8.0 | 16.1 | 0.00 | 0.00 | 0.00 | 48 | 1011.1 |
| 20260503181559 | 10 | 295 | 9.7 | 14.5 | 0.00 | 0.00 | 0.00 | 50 | 1011.0 |
| 20260503181055 | 10 | 317 | 14.5 | 16.1 | 0.00 | 0.00 | 0.00 | 50 | 1011.1 |
| 20260503180553 | 10 | 323 | 6.4 | 12.9 | 0.00 | 0.00 | 0.00 | 49 | 1011.2 |
| 20260503180050 | 10 | 331 | 6.4 | 12.9 | 0.00 | 0.00 | 0.00 | 49 | 1011.0 |
| 20260503175547 | 10 | 350 | 4.8 | 11.3 | 0.00 | 0.00 | 0.00 | 50 | 1011.0 |
| 20260503175045 | 10 | 317 | 9.7 | 11.3 | 0.00 | 0.00 | 0.00 | 49 | 1010.9 |
| 20260503174542 | 10 | 6 | 3.2 | 9.7 | 0.00 | 0.00 | 0.00 | 54 | 1011.1 |
| 20260503174038 | 10 | 284 | 3.2 | 4.8 | 0.00 | 0.00 | 0.00 | 54 | 1011.4 |
| 20260503173533 | 10 | 329 | 3.2 | 4.8 | 0.00 | 0.00 | 0.00 | 54 | 1011.3 |
| 20260503173029 | 9 | 356 | 3.2 | 8.0 | 0.00 | 0.00 | 0.00 | 52 | 1011.2 |
| 20260503172527 | 10 | 95 | 3.2 | 4.8 | 0.00 | 0.00 | 0.00 | 54 | 1011.2 |
| 20260503172024 | 10 | 29 | 4.8 | 4.8 | 0.00 | 0.00 | 0.00 | 53 | 1011.2 |
| 20260503171521 | 9 | 289 | 3.2 | 6.4 | 0.00 | 0.00 | 0.00 | 54 | 1011.4 |
| 20260503171018 | 9 | 57 | 6.4 | 9.7 | 0.00 | 0.00 | 0.00 | 54 | 1011.2 |
| 20260503170514 | 9 | 25 | 6.4 | 6.4 | 0.00 | 0.00 | 0.00 | 58 | 1011.3 |
| 20260503150907 | 8 | 24 | 8.0 | 17.7 | 0.00 | 0.00 | 0.00 | 62 | 1012.0 |
| 20260503150403 | 9 | 26 | 8.0 | 9.7 | 0.00 | 0.00 | 0.00 | 58 | 1012.0 |
| 20260503131256 | 8 | 351 | 6.4 | 11.3 | 0.00 | 0.00 | 0.00 | 67 | 1012.8 |
| 20260503130754 | 7 | 35 | 4.8 | 11.3 | 0.00 | 0.00 | 0.00 | 69 | 1012.7 |
| 20260503130251 | 8 | 326 | 8.0 | 14.5 | 0.00 | 0.00 | 0.00 | 67 | 1012.8 |